Location: Taaricht
(32.5378°N, 5.4251°W)
Time: 08:45:34
(UTC+00:00)

Daily predictions for brighter satellites

Satellite Brightness Start Highest point End
(mag) Time Altitude Azimuth Time Altitude Azimuth Time Altitude Azimuth
STARLINK-1123 4.5 19:05:26 10° NW 19:09:26 49° SW 19:13:25 10° SSE
ATLAS 5 CENTAUR R/B 3.3 19:07:53 10° SSW 19:10:58 19° SSE 19:17:28 10° ESE
Cosmos 1437 3.9 19:09:12 10° NNE 19:11:39 22° ENE 19:14:04 10° SE
Cosmos 1943 3.9 19:06:33 10° SSW 19:12:06 61° WNW 19:17:44 10° NNE
Cosmos 1992 Rocket 4.0 19:07:14 10° N 19:12:24 65° ENE 19:17:33 10° SSE
ISS -3.0 19:09:15 10° NW 19:12:33 53° SW 19:15:49 10° SSE
ADEOS Rocket 3.6 19:07:46 10° N 19:13:43 62° WNW 19:19:12 10° SSW
Nadezhda 1 Rocket 4.5 19:14:54 10° SSE 19:20:45 39° E 19:26:35 10° NNE
SEDSat Delta rocket 3.8 19:15:28 10° W 19:20:58 55° SSW 19:25:42 10° ESE
BREEZE M DEB (TANK) 1.6 19:19:25 10° SSW 19:21:36 54° SE 19:25:17 10° NE
H-2A R/B 3.4 19:05:06 10° W 19:21:46 47° SSW 19:25:15 10° SE
Cosmos 2263 4.3 19:17:22 10° NNW 19:22:53 57° ENE 19:28:22 10° SE
SL-24 R/B - RUBIN 2 4.3 19:19:14 10° SSW 19:24:28 86° WNW 19:30:31 10° NNE
IRIDIUM 106 4.5 19:21:22 10° N 19:26:28 52° E 19:31:30 10° SSE
ARGOS 4.0 19:22:22 10° SE 19:26:57 29° ENE 19:31:33 10° N
Aureole 2 Rocket 3.6 19:23:55 10° NNW 19:27:09 43° WSW 19:30:14 10° S
Cosmos 1758 Rocket 3.8 19:23:40 10° N 19:27:50 46° E 19:31:57 10° SSE
Cosmos 1606 Rocket 3.6 19:24:00 10° S 19:28:19 58° E 19:32:42 10° NNE
CZ-2C R/B 4.0 19:25:26 10° ENE 19:28:31 16° E 19:31:37 10° SE
USA 186 3.0 19:30:06 12° SE 19:32:31 24° ENE 19:35:12 10° NNE
Cosmos 1939 Rocket 4.3 19:29:01 10° S 19:32:42 40° W 19:36:22 10° NNW
Cosmos 1953 3.7 19:30:57 10° SSW 19:34:43 43° W 19:38:32 10° N
CZ-4 R/B 3.5 19:31:26 10° SSW 19:34:46 28° W 19:38:06 10° NW
Cosmos 1953 Rocket 4.4 19:32:06 10° NNE 19:36:07 31° E 19:39:55 11° SE
BREEZE-M DEB (TANK) 4.3 19:32:09 10° SW 19:42:22 59° SE 19:45:53 10° ENE
OE (NEXTSAT) 4.2 19:44:31 10° SW 19:47:59 68° SE 19:50:49 15° ENE
SJ-11-01 4.2 19:44:03 10° SSE 19:48:44 83° ENE 19:53:29 10° N
IRS-1A Rocket 4.3 19:44:17 10° SSE 19:49:53 66° ENE 19:55:39 10° N
Cosmos 2074 Rocket 4.0 19:48:10 10° N 19:54:29 85° E 20:00:47 10° S
GPS 2-04 Rocket1 2.8 19:56:14 10° SW 20:00:10 56° SSE 20:01:56 30° E
H-2A R/B 2.0 19:55:02 10° SSE 20:00:16 78° ENE 20:05:22 10° N
ATLAS 5 CENTAUR R/B 3.2 19:56:37 10° WSW 20:00:18 33° NW 20:04:17 10° NNE
USA 234 3.6 19:59:08 10° ENE 20:05:09 38° SE 20:11:08 10° SSW
Cosmos 1140 Rocket 3.7 20:02:15 10° SSW 20:07:25 72° WNW 20:12:35 10° NNE
SL-8 R/B 4.1 20:03:14 10° WNW 20:07:55 57° SW 20:10:34 24° SSE
OAO 1 4.5 20:02:44 10° WSW 20:08:16 89° SSE 20:11:40 24° ENE
Ariane Rocket 3.1 20:04:04 10° S 20:09:07 75° WSW 20:14:10 10° NNW
ATLAS 2AS CENTAUR R/B 2.9 20:01:51 10° NNW 20:09:09 60° ENE 20:13:00 27° SE
MONITOR-E 3.6 20:09:18 77° SSE 20:09:28 89° N 20:12:05 10° N
Cosmos 1610 Rocket 4.4 20:05:30 10° N 20:11:39 74° E 20:17:36 11° SSE
COSMOS 2455 3.7 20:06:55 10° N 20:12:14 32° ENE 20:13:56 27° E
CZ-2C R/B 2.9 20:10:44 10° S 20:15:38 81° WSW 20:20:25 10° NNW
SJ-6B 2.8 20:14:49 29° SSE 20:16:53 81° ENE 20:21:01 10° N
Cosmos 1300 2.7 20:18:02 53° ESE 20:18:11 54° E 20:21:55 10° NNE
Resurs 1-3 4.1 20:18:54 37° ENE 20:19:03 37° ENE 20:23:06 10° N
Cosmos 1295 Rocket 4.5 20:15:40 10° N 20:21:56 65° E 20:25:47 25° SSE
APEX 3.9 20:16:49 10° NNW 20:22:45 77° ENE 20:24:35 40° SSE
STPSAT 2 (USA 217) 4.4 20:23:40 10° SSW 20:28:09 84° ESE 20:32:38 10° NNE
Cosmos 2058 Rocket 4.1 20:28:33 10° SSW 20:32:53 48° W 20:37:15 10° N
SL-08 RB Rocket 3.8 20:34:26 35° S 20:36:16 74° WSW 20:40:52 10° NNW
Hubble Space Telescope 1.3 20:32:32 10° WSW 20:35:58 44° SSW 20:35:58 44° SSW
CZ-2C R/B 4.3 20:32:05 10° N 20:36:39 56° WNW 20:41:06 10° SSW
Cosmos 1461 3.0 20:39:43 10° NNW 20:44:21 83° ENE 20:44:26 82° E
Cosmos 921 Rocket 3.0 20:42:46 10° NNW 20:46:33 72° NNW 20:46:33 72° NNW
DMSP B5D2-2 4.5 20:45:22 10° N 20:50:31 62° WNW 20:55:41 10° SSW
COSMOS 2406 4.0 20:54:53 35° NE 20:54:53 35° NE 20:58:15 10° NNE
Resurs 01 Rocket 2.3 20:55:17 45° NNE 20:55:17 45° NNE 20:58:26 10° N
MetOp-A 4.3 20:54:52 49° SSW 20:56:15 71° WSW 21:01:36 10° NNW
Cosmos 2341 Rocket 3.9 20:50:04 10° N 20:56:29 90° ENE 20:58:20 50° S
SPOT 3 Rocket 4.1 21:03:23 42° SSW 21:04:41 53° W 21:09:46 10° NNW
MOS 1 Rocket 4.5 21:00:21 10° N 21:05:34 49° WNW 21:10:45 10° SSW
Cosmos 2218 Rocket 4.0 21:01:23 10° N 21:07:06 63° ENE 21:07:06 63° ENE
CZ-2C R/B 3.4 21:04:01 10° N 21:08:58 47° WNW 21:13:37 12° SW
Cosmos 2181 Rocket 4.4 21:12:43 26° SSW 21:16:18 60° W 21:22:25 10° N
SL-8 Rocket 3.9 21:13:22 10° N 21:19:43 81° W 21:19:53 80° WSW
Meteor 2-1 Rocket 4.4 21:23:23 72° NW 21:23:23 72° NW 21:29:01 10° N
Cosmos 2366 rocket 4.2 21:27:41 10° N 21:32:54 65° NNW 21:32:54 65° NNW
USA 234 4.0 21:41:54 10° NNE 21:48:09 49° NW 21:54:23 10° WSW
COSMOS 2455 4.2 21:52:45 10° NW 21:57:07 32° W 21:57:07 32° W
ATLAS 2AS CENTAUR R/B 4.4 21:54:16 10° WNW 21:59:21 21° WSW 22:00:29 20° WSW
CZ-4C R/B 4.2 22:42:55 10° NNW 22:47:00 33° N 22:47:00 33° N
